,,PA_Meas_PMT16A,,PR_Meas_QMR101_102,,RH_Meas_QMH101,,SR_Meas_QMS101,,TA_Meas_QMH101,,GenWind,,GenWind,
time,status,PA,status,PR,status,RH,status,SR,status,TA,status,DirAvg,status,SpdAvg,
2016-03-25, 07:52:04,VALID,921.492,VALID,0,VALID,104,VALID,86.705,VALID,20.4064,VALID,118,VALID,0,
2016-03-25, 07:53:04,VALID,921.5,VALID,0,VALID,104,VALID,90.2506,VALID,20.3854,VALID,121,VALID,0,
2016-03-25, 07:54:04,VALID,921.495,VALID,0,VALID,104,VALID,94.6557,VALID,20.3854,VALID,94,VALID,0,
2016-03-25, 07:55:04,VALID,921.444,VALID,0,VALID,104,VALID,101.639,VALID,20.3674,VALID,94,VALID,0,
2016-03-25, 07:56:04,VALID,921.447,VALID,0,VALID,104,VALID,106.044,VALID,20.3674,VALID,100,VALID,0,
2016-03-25, 07:57:04,VALID,921.454,VALID,0,VALID,104,VALID,111.416,VALID,20.3854,VALID,115,VALID,0.258984,
2016-03-25, 07:58:04,VALID,921.455,VALID,0,VALID,104,VALID,117.756,VALID,20.3659,VALID,80,VALID,0.938672,
2016-03-25, 07:59:04,VALID,921.401,VALID,0,VALID,104,VALID,122.268,VALID,20.4064,VALID,81,VALID,1.13398,
2016-03-25, 08:00:04,VALID,921.373,VALID,0,VALID,104,VALID,126.781,VALID,20.3854,VALID,60,VALID,1.93203,
2016-03-25, 08:01:04,VALID,921.383,VALID,0,VALID,104,VALID,130.004,VALID,20.2879,VALID,83,VALID,2.41445,
2016-03-25, 08:02:04,VALID,921.418,VALID,0,VALID,104,VALID,132.26,VALID,20.3074,VALID,95,VALID,1.56484,
2016-03-25, 08:03:04,VALID,921.413,VALID,0,VALID,104,VALID,133.872,VALID,20.3674,VALID,59,VALID,1.41133,
2016-03-25, 08:04:04,VALID,921.423,VALID,0,VALID,104,VALID,136.88,VALID,20.3854,VALID,51,VALID,1.28203,
2016-03-25, 08:05:04,VALID,921.428,VALID,0,VALID,104,VALID,141.07,VALID,20.3869,VALID,62,VALID,1.91094,
2016-03-25, 08:06:04,VALID,921.421,VALID,0,VALID,104,VALID,144.508,VALID,20.3464,VALID,57,VALID,2.01172,
2016-03-25, 08:07:04,VALID,921.396,VALID,0,VALID,104,VALID,147.194,VALID,20.4064,VALID,62,VALID,1.23789,
2016-03-25, 08:08:04,VALID,921.391,VALID,0,VALID,104,VALID,149.451,VALID,20.4064,VALID,66,VALID,1.525,
2016-03-25, 08:09:04,VALID,921.388,VALID,0,VALID,104,VALID,151.385,VALID,20.4259,VALID,55,VALID,1.22344,
2016-03-25, 08:10:04,VALID,921.383,VALID,0,VALID,104,VALID,153.641,VALID,20.4634,VALID,70,VALID,0.538281,
2016-03-25, 08:11:04,VALID,921.368,VALID,0,VALID,104,VALID,156.327,VALID,20.4634,VALID,55,VALID,1.58086,
2016-03-25, 08:12:04,VALID,921.391,VALID,0,VALID,104,VALID,159.12,VALID,20.4829,VALID,59,VALID,0.836719,
2016-03-25, 08:13:04,VALID,921.384,VALID,0,VALID,104,VALID,162.451,VALID,20.5414,VALID,54,VALID,0,
2016-03-25, 08:14:04,VALID,921.374,VALID,0,VALID,104,VALID,164.922,VALID,20.5024,VALID,69,VALID,1.2793,
2016-03-25, 08:15:04,VALID,921.355,VALID,0,VALID,104,VALID,167.501,VALID,20.5414,VALID,74,VALID,0.841406,
2016-03-25, 08:16:04,VALID,921.394,VALID,0,VALID,104,VALID,170.294,VALID,20.639,VALID,42,VALID,0.0796875,
2016-03-25, 08:17:04,VALID,921.389,VALID,0,VALID,104,VALID,172.873,VALID,20.6975,VALID,77,VALID,0,
2016-03-25, 08:18:04,VALID,921.38,VALID,0,VALID,104,VALID,174.377,VALID,20.7771,VALID,45,VALID,0,
2016-03-25, 08:19:04,VALID,921.359,VALID,0,VALID,104,VALID,176.203,VALID,20.795,VALID,40,VALID,0,
2016-03-25, 08:20:04,VALID,921.384,VALID,0,VALID,104,VALID,178.137,VALID,20.8145,VALID,42,VALID,0,
2016-03-25, 08:21:04,VALID,921.357,VALID,0,VALID,104,VALID,181.361,VALID,20.834,VALID,66,VALID,0,
2016-03-25, 08:22:04,VALID,921.349,VALID,0,VALID,104,VALID,180.394,VALID,20.8535,VALID,52,VALID,0,
2016-03-25, 08:23:04,VALID,921.399,VALID,0,VALID,104,VALID,181.898,VALID,20.9316,VALID,47,VALID,0,
2016-03-25, 08:24:04,VALID,921.382,VALID,0,VALID,104,VALID,181.038,VALID,20.9316,VALID,61,VALID,0,
2016-03-25, 08:25:04,VALID,921.391,VALID,0,VALID,104,VALID,183.724,VALID,20.9316,VALID,94,VALID,0,
2016-03-25, 08:26:04,VALID,921.358,VALID,0,VALID,104,VALID,186.088,VALID,20.9706,VALID,77,VALID,0,
2016-03-25, 08:27:04,VALID,921.351,VALID,0,VALID,104,VALID,186.733,VALID,20.9901,VALID,75,VALID,0,
2016-03-25, 08:28:04,VALID,921.37,VALID,0,VALID,104,VALID,188.667,VALID,21.008,VALID,69,VALID,1.03164,
2016-03-25, 08:29:04,VALID,921.345,VALID,0,VALID,104,VALID,191.353,VALID,21.0291,VALID,82,VALID,0.998828,
2016-03-25, 08:30:04,VALID,921.343,VALID,0,INVALID,109.053,VALID,195.543,VALID,21.086,VALID,48,VALID,1.24336,
2016-03-25, 08:31:04,VALID,921.368,VALID,0,INVALID,109.236,VALID,201.345,VALID,21.1055,VALID,65,VALID,0.991797,
2016-03-25, 08:32:04,VALID,921.355,VALID,0,INVALID,109.526,VALID,217.783,VALID,21.086,VALID,40,VALID,1.42539,
2016-03-25, 08:33:04,VALID,921.366,VALID,0,INVALID,109.48,VALID,216.386,VALID,21.1445,VALID,34,VALID,0.392188,
2016-03-25, 08:34:04,VALID,921.434,VALID,0,INVALID,109.457,VALID,214.775,VALID,21.2632,VALID,79,VALID,0,
2016-03-25, 08:35:04,VALID,921.421,VALID,0,INVALID,109.64,VALID,214.13,VALID,21.2811,VALID,89,VALID,0,
2016-03-25, 08:36:04,VALID,921.432,VALID,0,INVALID,109.693,VALID,214.56,VALID,21.3217,VALID,120,VALID,0,
2016-03-25, 08:37:04,VALID,921.462,VALID,0,INVALID,109.663,VALID,213.593,VALID,21.3998,VALID,201,VALID,0,
2016-03-25, 08:38:04,VALID,921.447,VALID,0,INVALID,109.587,VALID,213.271,VALID,21.4762,VALID,197,VALID,0,
2016-03-25, 08:39:04,VALID,921.46,VALID,0,INVALID,109.579,VALID,216.064,VALID,21.5347,VALID,191,VALID,0,
2016-03-25, 08:40:04,VALID,921.44,VALID,0,INVALID,109.701,VALID,222.188,VALID,21.5168,VALID,168,VALID,0,
2016-03-25, 08:41:04,VALID,921.454,VALID,0,INVALID,109.693,VALID,227.56,VALID,21.5754,VALID,159,VALID,0,
2016-03-25, 08:42:04,VALID,921.41,VALID,0,INVALID,109.8,VALID,234.114,VALID,21.538,VALID,169,VALID,0.0265625,
2016-03-25, 08:43:04,VALID,921.437,VALID,0,INVALID,109.831,VALID,238.304,VALID,21.499,VALID,168,VALID,0.120703,
2016-03-25, 08:44:04,VALID,921.399,VALID,0,INVALID,109.716,VALID,245.288,VALID,21.5363,VALID,133,VALID,0.278516,
2016-03-25, 08:45:04,VALID,921.376,VALID,0,INVALID,109.655,VALID,251.735,VALID,21.5559,VALID,160,VALID,0,
2016-03-25, 08:46:04,VALID,921.372,VALID,0,INVALID,109.609,VALID,252.702,VALID,21.5949,VALID,145,VALID,0,
2016-03-25, 08:47:04,VALID,921.337,VALID,0,INVALID,109.579,VALID,255.065,VALID,21.6339,VALID,127,VALID,0,
2016-03-25, 08:48:04,VALID,921.317,VALID,0,INVALID,109.594,VALID,258.074,VALID,21.6534,VALID,157,VALID,0.869531,
2016-03-25, 08:49:04,VALID,921.34,VALID,0,INVALID,109.556,VALID,253.991,VALID,21.6518,VALID,134,VALID,1.12578,
2016-03-25, 08:50:04,VALID,921.312,VALID,0,INVALID,109.442,VALID,251.735,VALID,21.6713,VALID,137,VALID,1.2832,
2016-03-25, 08:51:04,VALID,921.284,VALID,0,INVALID,109.266,VALID,246.685,VALID,21.6534,VALID,155,VALID,1.71992,
2016-03-25, 08:52:04,VALID,921.318,VALID,0,INVALID,109.144,VALID,243.354,VALID,21.6924,VALID,137,VALID,0.386328,
2016-03-25, 08:53:04,VALID,921.262,VALID,0,INVALID,109.038,VALID,241.743,VALID,21.6908,VALID,101,VALID,2.31914,
2016-03-25, 08:54:04,VALID,921.308,VALID,0,VALID,104,VALID,242.602,VALID,21.7705,VALID,128,VALID,0,
2016-03-25, 08:55:04,VALID,921.333,VALID,0,VALID,104,VALID,243.784,VALID,21.8274,VALID,135,VALID,0,
2016-03-25, 08:56:04,VALID,921.303,VALID,0,VALID,104,VALID,246.792,VALID,21.8469,VALID,135,VALID,0.875391,
2016-03-25, 08:57:04,VALID,921.299,VALID,0,VALID,104,VALID,252.487,VALID,21.8859,VALID,133,VALID,0,
2016-03-25, 08:58:04,VALID,921.283,VALID,0,VALID,104,VALID,259.041,VALID,21.9444,VALID,100,VALID,0,
2016-03-25, 08:59:04,VALID,921.258,VALID,0,INVALID,109.03,VALID,266.991,VALID,22.0225,VALID,104,VALID,0.00078125,
2016-03-25, 09:00:04,VALID,921.261,VALID,0,VALID,104,VALID,272.578,VALID,22.0225,VALID,99,VALID,0,
2016-03-25, 09:01:04,VALID,921.274,VALID,0,VALID,104,VALID,269.355,VALID,22.0615,VALID,107,VALID,0.558594,
2016-03-25, 09:02:04,VALID,921.28,VALID,0,VALID,104,VALID,264.95,VALID,22.1608,VALID,71,VALID,0,
2016-03-25, 09:03:04,VALID,921.288,VALID,0,VALID,104,VALID,258.933,VALID,22.1591,VALID,96,VALID,1.38867,
2016-03-25, 09:04:04,VALID,921.294,VALID,0,VALID,104,VALID,252.379,VALID,22.1379,VALID,126,VALID,1.36914,
2016-03-25, 09:05:04,VALID,921.328,VALID,0,VALID,104,VALID,246.255,VALID,22.1201,VALID,114,VALID,0.701953,
2016-03-25, 09:06:04,VALID,921.318,VALID,0,VALID,104,VALID,241.528,VALID,22.1396,VALID,98,VALID,0.00195313,
2016-03-25, 09:07:04,VALID,921.327,VALID,0,VALID,104,VALID,238.412,VALID,22.1591,VALID,129,VALID,0,
2016-03-25, 09:08:04,VALID,921.32,VALID,0,VALID,104,VALID,237.123,VALID,22.1786,VALID,101,VALID,1.2543,
2016-03-25, 09:09:04,VALID,921.314,VALID,0,VALID,104,VALID,238.842,VALID,22.1786,VALID,112,VALID,1.05781,
2016-03-25, 09:10:04,VALID,921.31,VALID,0,VALID,104,VALID,242.28,VALID,22.1981,VALID,157,VALID,0.28125,
2016-03-25, 09:11:04,VALID,921.341,VALID,0,VALID,104,VALID,245.61,VALID,22.2371,VALID,136,VALID,0.0113281,
2016-03-25, 09:12:04,VALID,921.312,VALID,0,VALID,104,VALID,247.007,VALID,22.2762,VALID,123,VALID,0.478125,
2016-03-25, 09:13:04,VALID,921.29,VALID,0,VALID,104,VALID,247.544,VALID,22.2957,VALID,128,VALID,0.320703,
2016-03-25, 09:14:04,VALID,921.314,VALID,0,VALID,104,VALID,247.759,VALID,22.3525,VALID,120,VALID,0.183203,
2016-03-25, 09:15:04,VALID,921.322,VALID,0,VALID,104,VALID,248.297,VALID,22.4128,VALID,103,VALID,0.127734,
2016-03-25, 09:16:04,VALID,921.288,VALID,0,VALID,104,VALID,250.016,VALID,22.4111,VALID,134,VALID,1.225,
2016-03-25, 09:17:04,VALID,921.353,VALID,0,VALID,104,VALID,252.916,VALID,22.4908,VALID,120,VALID,0.00429688,
2016-03-25, 09:18:04,VALID,921.365,VALID,0,VALID,104,VALID,255.817,VALID,22.5494,VALID,102,VALID,0.0628906,
2016-03-25, 09:19:04,VALID,921.381,VALID,0,VALID,104,VALID,257.966,VALID,22.5672,VALID,91,VALID,0,
2016-03-25, 09:20:04,VALID,921.411,VALID,0,VALID,104,VALID,259.578,VALID,22.5867,VALID,143,VALID,0.38125,
2016-03-25, 09:21:04,VALID,921.416,VALID,0,VALID,104,VALID,259.793,VALID,22.6079,VALID,136,VALID,0.969922,
2016-03-25, 09:22:04,VALID,921.443,VALID,0,VALID,104,VALID,260.652,VALID,22.5867,VALID,134,VALID,0.466406,
2016-03-25, 09:23:04,VALID,921.398,VALID,0,VALID,104,VALID,263.123,VALID,22.6257,VALID,139,VALID,0,
2016-03-25, 09:24:04,VALID,921.408,VALID,0,VALID,104,VALID,268.71,VALID,22.6452,VALID,130,VALID,1.10352,
2016-03-25, 09:25:04,VALID,921.421,VALID,0,VALID,103.793,VALID,278.595,VALID,22.6452,VALID,119,VALID,1.15625,
2016-03-25, 09:26:04,VALID,921.394,VALID,0,VALID,104,VALID,321.356,VALID,22.6452,VALID,100,VALID,0.651172,
2016-03-25, 09:27:04,VALID,921.406,VALID,0,VALID,104,VALID,309.216,VALID,22.7038,VALID,87,VALID,0,
2016-03-25, 09:28:04,VALID,921.407,VALID,0,VALID,104,VALID,299.761,VALID,22.7623,VALID,115,VALID,0,
2016-03-25, 09:29:04,VALID,921.44,VALID,0,VALID,104,VALID,304.058,VALID,22.9185,VALID,40,VALID,0.00390625,
2016-03-25, 09:30:04,VALID,921.449,VALID,0,VALID,104,VALID,317.703,VALID,23.0356,VALID,52,VALID,0.00078125,
2016-03-25, 09:31:04,VALID,921.442,VALID,0,VALID,104,VALID,322.216,VALID,23.1331,VALID,90,VALID,0,
2016-03-25, 09:32:04,VALID,921.46,VALID,0,VALID,103.473,VALID,310.075,VALID,23.2094,VALID,98,VALID,0,
2016-03-25, 09:33:04,VALID,921.462,VALID,0,VALID,101.262,VALID,307.604,VALID,23.2307,VALID,66,VALID,0.0105469,
2016-03-25, 09:34:04,VALID,921.477,VALID,0,VALID,101.285,VALID,307.282,VALID,23.2307,VALID,74,VALID,0.152734,
2016-03-25, 09:35:04,VALID,921.475,VALID,0,VALID,98.7004,VALID,307.497,VALID,23.1527,VALID,98,VALID,0,
2016-03-25, 09:36:04,VALID,921.47,VALID,0,VALID,101.498,VALID,308.678,VALID,23.1722,VALID,105,VALID,0,
2016-03-25, 09:37:04,VALID,921.461,VALID,0,VALID,103.236,VALID,310.935,VALID,23.2893,VALID,92,VALID,0,
2016-03-25, 09:38:04,VALID,921.485,VALID,0,VALID,103.137,VALID,313.621,VALID,23.3869,VALID,124,VALID,0,
2016-03-25, 09:39:04,VALID,921.497,VALID,0,VALID,100.667,VALID,315.662,VALID,23.4454,VALID,143,VALID,0,
2016-03-25, 09:40:04,VALID,921.517,VALID,0,VALID,100.713,VALID,317.059,VALID,23.4845,VALID,141,VALID,0,
2016-03-25, 09:41:04,VALID,921.563,VALID,0,VALID,99.7524,VALID,318.993,VALID,23.4827,VALID,111,VALID,0,
2016-03-25, 09:42:04,VALID,921.585,VALID,0,VALID,100.957,VALID,323.29,VALID,23.5412,VALID,68,VALID,0,
2016-03-25, 09:43:04,VALID,921.607,VALID,0,VALID,91.9155,VALID,331.456,VALID,23.5412,VALID,132,VALID,0,
2016-03-25, 09:44:04,VALID,921.623,VALID,0,VALID,101.513,VALID,339.621,VALID,23.6584,VALID,73,VALID,0,
2016-03-25, 09:45:04,VALID,921.604,VALID,0,VALID,103.732,VALID,350.366,VALID,23.6584,VALID,56,VALID,1.31836,
2016-03-25, 09:46:04,VALID,921.647,VALID,0,VALID,104,VALID,360.358,VALID,23.637,VALID,17,VALID,0.0640625,
2016-03-25, 09:47:04,VALID,921.662,VALID,0,VALID,104,VALID,373.251,VALID,23.6584,VALID,18,VALID,0.110156,
2016-03-25, 09:48:04,VALID,921.661,VALID,0,VALID,101.475,VALID,391.623,VALID,23.5803,VALID,5,VALID,0,
2016-03-25, 09:49:04,VALID,921.675,VALID,0,VALID,104,VALID,481.229,VALID,23.6797,VALID,5,VALID,0,
2016-03-25, 09:50:04,VALID,921.693,VALID,0,VALID,104,VALID,462.534,VALID,23.8358,VALID,5,VALID,0,
2016-03-25, 09:51:04,VALID,921.671,VALID,0,VALID,104,VALID,485.419,VALID,24.0311,VALID,5,VALID,0,
2016-03-25, 09:52:04,VALID,921.689,VALID,0,VALID,103.93,VALID,554.934,VALID,24.2849,VALID,5,VALID,0,
2016-03-25, 09:53:04,VALID,921.695,VALID,0,VALID,103.381,VALID,808.172,VALID,24.5387,VALID,5,VALID,0,
2016-03-25, 09:54:04,VALID,921.707,VALID,0,VALID,97.8389,VALID,742.633,VALID,24.693,VALID,105,VALID,0,
2016-03-25, 09:55:04,VALID,921.674,VALID,0,VALID,82.8208,VALID,527.643,VALID,24.7516,VALID,100,VALID,0,
2016-03-25, 09:56:04,VALID,921.622,VALID,0,VALID,80.7777,VALID,493.907,VALID,24.8297,VALID,108,VALID,0,
2016-03-25, 09:57:04,VALID,921.605,VALID,0,VALID,88.8204,VALID,468.981,VALID,25.064,VALID,97,VALID,0,
2016-03-25, 09:58:04,VALID,921.582,VALID,0,VALID,80.7625,VALID,445.129,VALID,25.2203,VALID,73,VALID,0.277344,
2016-03-25, 09:59:04,VALID,921.563,VALID,0,VALID,81.9822,VALID,412.252,VALID,25.2007,VALID,103,VALID,0.0429688,
2016-03-25, 10:00:04,VALID,921.567,VALID,0,VALID,85.0697,VALID,388.722,VALID,25.1422,VALID,64,VALID,0.0417969,
2016-03-25, 10:01:04,VALID,921.557,VALID,0,VALID,83.6289,VALID,382.491,VALID,25.0621,VALID,61,VALID,0.542578,
2016-03-25, 10:02:04,VALID,921.554,VALID,0,VALID,81.441,VALID,385.929,VALID,24.9059,VALID,79,VALID,1.34961,
2016-03-25, 10:03:04,VALID,921.547,VALID,0,VALID,82.6988,VALID,416.012,VALID,24.8297,VALID,62,VALID,1.70117,
2016-03-25, 10:04:04,VALID,921.54,VALID,0,VALID,80.7091,VALID,564.066,VALID,24.7126,VALID,79,VALID,2.17891,
2016-03-25, 10:05:04,VALID,921.559,VALID,0,VALID,89.7733,VALID,612.2,VALID,24.6363,VALID,92,VALID,1.26406,
2016-03-25, 10:06:04,VALID,921.501,VALID,0,VALID,95.9102,VALID,710.293,VALID,24.654,VALID,62,VALID,1.39375,
2016-03-25, 10:07:04,VALID,921.486,VALID,0,VALID,86.5715,VALID,740.699,VALID,24.7535,VALID,69,VALID,2.05898,
2016-03-25, 10:08:04,VALID,921.467,VALID,0,VALID,85.6796,VALID,648.085,VALID,24.7144,VALID,61,VALID,2.02813,
2016-03-25, 10:09:04,VALID,921.45,VALID,0,VALID,96.2533,VALID,593.397,VALID,24.8121,VALID,92,VALID,0.0640625,
2016-03-25, 10:10:04,VALID,921.448,VALID,0,VALID,82.8284,VALID,744.03,VALID,24.8316,VALID,134,VALID,0.860547,
2016-03-25, 10:11:04,VALID,921.436,VALID,0,VALID,83.9719,VALID,719.104,VALID,24.9292,VALID,63,VALID,1.18008,
2016-03-25, 10:12:04,VALID,921.384,VALID,0,VALID,78.666,VALID,871.025,VALID,25.0074,VALID,131,VALID,2.39922,
2016-03-25, 10:13:04,VALID,921.359,VALID,0,VALID,83.4154,VALID,853.19,VALID,25.064,VALID,115,VALID,0.0730469,
2016-03-25, 10:14:04,VALID,921.37,VALID,0,VALID,77.8503,VALID,497.453,VALID,25.2984,VALID,125,VALID,1.01992,
2016-03-25, 10:15:04,VALID,921.327,VALID,0,VALID,79.3064,VALID,716.31,VALID,25.2593,VALID,95,VALID,0.797266,
2016-03-25, 10:16:04,VALID,921.301,VALID,0,VALID,78.6889,VALID,459.096,VALID,25.3589,VALID,137,VALID,0.598047,
2016-03-25, 10:17:04,VALID,921.268,VALID,0,VALID,81.319,VALID,665.813,VALID,25.4761,VALID,66,VALID,0,
2016-03-25, 10:18:04,VALID,921.232,VALID,0,VALID,76.4781,VALID,758.105,VALID,25.5523,VALID,134,VALID,1.64219,
2016-03-25, 10:19:04,VALID,921.249,VALID,0,VALID,74.74,VALID,703.31,VALID,25.5132,VALID,111,VALID,1.4582,
2016-03-25, 10:20:04,VALID,921.219,VALID,0,VALID,73.9929,VALID,573.521,VALID,25.4937,VALID,115,VALID,2.13477,
2016-03-25, 10:21:04,VALID,921.219,VALID,0,VALID,74.7247,VALID,545.479,VALID,25.396,VALID,52,VALID,2.52773,
2016-03-25, 10:22:04,VALID,921.181,VALID,0,VALID,74.3131,VALID,399.681,VALID,25.3765,VALID,83,VALID,1.7668,
2016-03-25, 10:23:04,VALID,921.154,VALID,0,VALID,73.8023,VALID,526.569,VALID,25.3374,VALID,110,VALID,1.06328,
2016-03-25, 10:24:04,VALID,921.132,VALID,0,VALID,75.975,VALID,746.931,VALID,25.3374,VALID,129,VALID,0.504297,
2016-03-25, 10:25:04,VALID,921.114,VALID,0,VALID,76.6687,VALID,732.534,VALID,25.5327,VALID,110,VALID,0.611719,
2016-03-25, 10:26:04,VALID,921.142,VALID,0,VALID,73.97,VALID,719.641,VALID,25.7456,VALID,89,VALID,1.93594,
2016-03-25, 10:27:04,VALID,921.092,VALID,0,VALID,71.1646,VALID,718.566,VALID,25.8237,VALID,127,VALID,1.85352,
2016-03-25, 10:28:04,VALID,921.049,VALID,0,VALID,70.7224,VALID,732.964,VALID,25.8843,VALID,127,VALID,2.00039,
2016-03-25, 10:29:04,VALID,921.036,VALID,0,VALID,73.9624,VALID,739.195,VALID,26.021,VALID,96,VALID,0.0976563,
2016-03-25, 10:30:04,VALID,921.012,VALID,0,VALID,72.0565,VALID,760.039,VALID,26.2164,VALID,102,VALID,0.453516,
2016-03-25, 10:31:04,VALID,921.001,VALID,0,VALID,72.735,VALID,791.304,VALID,26.3922,VALID,75,VALID,1.38086,
2016-03-25, 10:32:04,VALID,921.035,VALID,0,VALID,71.5458,VALID,634.655,VALID,26.4703,VALID,133,VALID,2.04766,
2016-03-25, 10:33:04,VALID,920.99,VALID,0,VALID,67.3148,VALID,401.615,VALID,26.3726,VALID,147,VALID,1.58516,
2016-03-25, 10:34:04,VALID,920.976,VALID,0,VALID,71.6754,VALID,307.711,VALID,26.2925,VALID,62,VALID,1.62695,
2016-03-25, 10:35:04,VALID,920.978,VALID,0,VALID,72.0489,VALID,393.02,VALID,26.273,VALID,101,VALID,0.457812,
2016-03-25, 10:36:04,VALID,920.937,VALID,0,VALID,70.3641,VALID,533.23,VALID,26.2339,VALID,138,VALID,0.576563,
2016-03-25, 10:37:04,VALID,920.872,VALID,0,VALID,73.1086,VALID,469.088,VALID,26.2925,VALID,122,VALID,0.0304688,
2016-03-25, 10:38:04,VALID,920.846,VALID,0,VALID,71.3475,VALID,652.06,VALID,26.3316,VALID,129,VALID,0.0839844,
2016-03-25, 10:39:04,VALID,920.824,VALID,0,VALID,72.3691,VALID,625.415,VALID,26.5289,VALID,151,VALID,0,
2016-03-25, 10:40:04,VALID,920.829,VALID,0,VALID,72.9637,VALID,774.221,VALID,26.6246,VALID,79,VALID,1.26914,
2016-03-25, 10:41:04,VALID,920.789,VALID,0,VALID,68.969,VALID,817.197,VALID,26.7418,VALID,101,VALID,0,
2016-03-25, 10:42:04,VALID,920.783,VALID,0,VALID,68.2906,VALID,810.966,VALID,26.859,VALID,137,VALID,0.283984,
2016-03-25, 10:43:04,VALID,920.75,VALID,0,VALID,65.973,VALID,822.462,VALID,26.7418,VALID,134,VALID,0.942187,
2016-03-25, 10:44:04,VALID,920.723,VALID,0,VALID,69.9677,VALID,783.676,VALID,26.8199,VALID,67,VALID,0.944531,
2016-03-25, 10:45:04,VALID,920.732,VALID,0,VALID,67.978,VALID,823.214,VALID,26.9176,VALID,98,VALID,1.39922,
2016-03-25, 10:46:04,VALID,920.696,VALID,0,VALID,70.9969,VALID,828.586,VALID,26.9567,VALID,132,VALID,0.0417969,
2016-03-25, 10:47:04,VALID,920.693,VALID,0,VALID,71.3552,VALID,822.355,VALID,27.1109,VALID,90,VALID,2.19648,
2016-03-25, 10:48:04,VALID,920.685,VALID,0,VALID,64.7762,VALID,819.669,VALID,27.1716,VALID,138,VALID,2.14883,
2016-03-25, 10:49:04,VALID,920.622,VALID,0,VALID,65.3174,VALID,831.595,VALID,27.1325,VALID,77,VALID,0.903906,
2016-03-25, 10:50:04,VALID,920.597,VALID,0,VALID,68.0695,VALID,830.09,VALID,27.1695,VALID,161,VALID,0.0378906,
2016-03-25, 10:51:04,VALID,920.624,VALID,0,VALID,65.2031,VALID,831.809,VALID,27.367,VALID,135,VALID,0.650781,
2016-03-25, 10:52:04,VALID,920.607,VALID,0,VALID,63.9757,VALID,831.487,VALID,27.4451,VALID,170,VALID,1.39258,
2016-03-25, 10:53:04,VALID,920.608,VALID,0,VALID,65.7825,VALID,843.735,VALID,27.5233,VALID,163,VALID,0.0113281,
2016-03-25, 10:54:04,VALID,920.627,VALID,0,VALID,66.5448,VALID,845.562,VALID,27.4821,VALID,127,VALID,0.396484,
2016-03-25, 10:55:04,VALID,920.619,VALID,0,VALID,65.8739,VALID,849.859,VALID,27.5798,VALID,148,VALID,0.291406,
2016-03-25, 10:56:04,VALID,920.616,VALID,0,VALID,61.9403,VALID,850.826,VALID,27.6775,VALID,178,VALID,1.41211,
2016-03-25, 10:57:04,VALID,920.638,VALID,0,VALID,61.7954,VALID,855.554,VALID,27.6971,VALID,182,VALID,1.27031,
2016-03-25, 10:58:04,VALID,920.633,VALID,0,VALID,61.9403,VALID,856.199,VALID,27.6971,VALID,149,VALID,0.991797,
2016-03-25, 10:59:04,VALID,920.627,VALID,0,VALID,61.9707,VALID,866.728,VALID,27.5603,VALID,153,VALID,0.752344,
2016-03-25, 11:00:04,VALID,920.598,VALID,0,VALID,64.7228,VALID,873.819,VALID,27.4019,VALID,115,VALID,1.64609,
2016-03-25, 11:01:04,VALID,920.583,VALID,0,VALID,65.8587,VALID,883.918,VALID,27.4821,VALID,140,VALID,0.184766,
2016-03-25, 11:02:04,VALID,920.568,VALID,0,VALID,66.4991,VALID,907.77,VALID,27.6189,VALID,183,VALID,0.0128906,
2016-03-25, 11:03:04,VALID,920.555,VALID,0,VALID,62.4434,VALID,819.991,VALID,27.7557,VALID,173,VALID,1.35273,
2016-03-25, 11:04:04,VALID,920.564,VALID,0,VALID,63.4039,VALID,711.046,VALID,27.7752,VALID,153,VALID,1.04453,
2016-03-25, 11:05:04,VALID,920.548,VALID,0,VALID,63.3735,VALID,773.684,VALID,27.6385,VALID,147,VALID,0.506641,
2016-03-25, 11:06:04,VALID,920.504,VALID,0,VALID,63.9071,VALID,809.999,VALID,27.6385,VALID,152,VALID,1.28164,
2016-03-25, 11:07:04,VALID,920.48,VALID,0,VALID,63.1981,VALID,886.067,VALID,27.7773,VALID,139,VALID,0.307813,
2016-03-25, 11:08:04,VALID,920.49,VALID,0,VALID,62.9389,VALID,901.539,VALID,27.6796,VALID,159,VALID,0.779297,
2016-03-25, 11:09:04,VALID,920.459,VALID,0,VALID,62.8627,VALID,894.877,VALID,27.6992,VALID,146,VALID,1.87773,
2016-03-25, 11:10:04,VALID,920.43,VALID,0,VALID,62.1766,VALID,913.25,VALID,27.8729,VALID,192,VALID,0.477734,
2016-03-25, 11:11:04,VALID,920.452,VALID,0,VALID,59.112,VALID,923.672,VALID,28.0509,VALID,165,VALID,0.291016,
2016-03-25, 11:12:04,VALID,920.429,VALID,0,VALID,61.3456,VALID,926.143,VALID,28.1856,VALID,48,VALID,1.02617,
2016-03-25, 11:13:04,VALID,920.424,VALID,0,VALID,58.1362,VALID,922.597,VALID,28.3419,VALID,157,VALID,1.21367,
2016-03-25, 11:14:04,VALID,920.452,VALID,0,VALID,59.9429,VALID,900.142,VALID,28.3441,VALID,164,VALID,0.920313,
2016-03-25, 11:15:04,VALID,920.465,VALID,0,VALID,61.1245,VALID,944.3,VALID,28.2268,VALID,146,VALID,1.22305,
2016-03-25, 11:16:04,VALID,920.401,VALID,0,VALID,63.4421,VALID,938.606,VALID,28.2247,VALID,58,VALID,1.79609,
2016-03-25, 11:17:04,VALID,920.469,VALID,0,VALID,61.1474,VALID,939.895,VALID,28.4027,VALID,131,VALID,0.121875,
2016-03-25, 11:18:04,VALID,920.436,VALID,0,VALID,59.8514,VALID,940.325,VALID,28.3419,VALID,106,VALID,0.0417969,
2016-03-25, 11:19:04,VALID,920.416,VALID,0,VALID,59.2416,VALID,950.21,VALID,28.5374,VALID,167,VALID,0,
2016-03-25, 11:20:04,VALID,920.429,VALID,0,VALID,60.9263,VALID,841.909,VALID,28.6568,VALID,138,VALID,0,
2016-03-25, 11:21:04,VALID,920.435,VALID,0,VALID,58.6774,VALID,885.1,VALID,28.6764,VALID,135,VALID,0.694922,
2016-03-25, 11:22:04,VALID,920.39,VALID,0,VALID,59.112,VALID,926.25,VALID,28.7524,VALID,189,VALID,0,
2016-03-25, 11:23:04,VALID,920.347,VALID,0,VALID,57.4272,VALID,926.895,VALID,28.9305,VALID,71,VALID,0.808594,
2016-03-25, 11:24:04,VALID,920.376,VALID,0,VALID,60.5147,VALID,928.829,VALID,28.8523,VALID,175,VALID,0.329688,
2016-03-25, 11:25:04,VALID,920.347,VALID,0,VALID,58.2429,VALID,922.275,VALID,28.9674,VALID,202,VALID,0.197266,
2016-03-25, 11:26:04,VALID,920.364,VALID,0,VALID,62.1613,VALID,916.688,VALID,29.1846,VALID,153,VALID,0.0945313,
2016-03-25, 11:27:04,VALID,920.364,VALID,0,VALID,55.9711,VALID,908.63,VALID,29.3584,VALID,167,VALID,0.00195313,
2016-03-25, 11:28:04,VALID,920.37,VALID,0,VALID,56.0321,VALID,896.167,VALID,29.2215,VALID,141,VALID,0.431641,
2016-03-25, 11:29:04,VALID,920.372,VALID,0,VALID,55.6967,VALID,892.299,VALID,29.1629,VALID,119,VALID,0.104297,
2016-03-25, 11:30:04,VALID,920.359,VALID,0,VALID,57.8846,VALID,871.563,VALID,29.202,VALID,70,VALID,0.265234,
2016-03-25, 11:31:04,VALID,920.312,VALID,0,VALID,59.3483,VALID,859.207,VALID,28.9501,VALID,128,VALID,1.52891,
2016-03-25, 11:32:04,VALID,920.286,VALID,0,VALID,61.7725,VALID,830.305,VALID,28.6916,VALID,105,VALID,0.775,